Home   Weather   Antananarivo   Past weeks
Flag for Madagascar

Past Weather in Antananarivo, Madagascar — Yesterday and Last 2 Weeks

Now
55 °F

Passing clouds.


Feels Like: 55 °F
Forecast: 71 / 58 °F
Wind: 5 mph from Southeast

Location: Antananarivo / Ivato

Current Time: May 26, 2019 at 6:14:21 am

Latest Report: May 26, 2019 at 5:30 am


Visibility: N/A

Pressure: 30.18 "Hg (25.88 "Hg at 1287m altitude)

Humidity: 88%

Dew Point: 52 °F

Location of AntananarivoLocation

Past Weather in Antananarivo — Graph

°F

Antananarivo Temperature Yesterday

Maximum temperature yesterday: 73 °F (at 1:30 pm)
Minimum temperature yesterday: 57 °F (at 11:00 pm)
Average temperature yesterday: 64 °F

High & Low Weather Summary for the Past Weeks

 TemperatureHumidityPressure
High82 °F (May 11, 2:00 pm)100% (May 11, 6:30 am)30.27 "Hg (May 11, 6:30 am)
Low52 °F (May 13, 2:30 am)32% (May 11, 3:00 pm)30.01 "Hg (May 13, 2:00 pm)
Average66 °F75%30.16 "Hg
* Reported May 11 5:00 am — May 26 5:00 am, Antananarivo. Weather by CustomWeather, © 2019

Note: Actual official high and low records may vary slightly from our data, if they occured in-between our weather recording intervals... More about our weather records

Advertising

Antananarivo Weather History for the Previous 24 Hours

Scroll right to see more
 ConditionsComfort  
Time TempWeatherWind HumidityBarometerVisibility
5:00 am
Sun, May 26
57 °FPassing clouds.5 mph82%30.18 "HgN/A
4:30 am57 °FPassing clouds.5 mph88%30.18 "HgN/A
4:00 am57 °FPassing clouds.8 mph88%30.18 "HgN/A
3:00 am59 °FPassing clouds.6 mph88%30.18 "HgN/A
2:30 am59 °FPassing clouds.6 mph88%30.18 "HgN/A
2:00 am59 °FPassing clouds.5 mph88%30.21 "HgN/A
1:30 am59 °FPassing clouds.10 mph88%30.18 "HgN/A
1:00 am57 °FPassing clouds.5 mph94%30.21 "HgN/A
12:30 am57 °FPassing clouds.3 mph94%30.21 "HgN/A
12:00 am55 °FPassing clouds.5 mph100%30.21 "HgN/A
11:30 pm
Sat, May 25
57 °FPassing clouds.5 mph94%30.21 "HgN/A
11:00 pm57 °FPassing clouds.3 mph94%30.21 "HgN/A
10:30 pm59 °FPassing clouds.5 mph88%30.24 "HgN/A
10:00 pm59 °FPassing clouds.5 mph88%30.24 "HgN/A
9:30 pm59 °FPassing clouds.7 mph88%30.24 "HgN/A
9:00 pm59 °FPassing clouds.7 mph88%30.24 "HgN/A
8:30 pm61 °FPassing clouds.9 mph83%30.24 "HgN/A
8:00 pm61 °FPassing clouds.7 mph83%30.24 "HgN/A
7:30 pm61 °FPassing clouds.9 mph83%30.24 "HgN/A
7:00 pm61 °FPassing clouds.9 mph83%30.21 "HgN/A
6:30 pm61 °FPassing clouds.8 mph83%30.21 "HgN/A
6:00 pm63 °FPassing clouds.9 mph77%30.21 "HgN/A
5:30 pm64 °FPassing clouds.12 mph68%30.21 "HgN/A
5:00 pm66 °FPassing clouds.12 mph64%30.18 "HgN/A
4:30 pm70 °FPassing clouds.14 mph60%30.18 "HgN/A
4:00 pm72 °FPassing clouds.13 mph53%30.18 "HgN/A
3:30 pm72 °FScattered clouds.12 mph53%30.18 "HgN/A
3:00 pm73 °FScattered clouds.14 mph53%30.18 "HgN/A
2:30 pm73 °FScattered clouds.13 mph53%30.18 "HgN/A
2:00 pm73 °FScattered clouds.14 mph53%30.15 "HgN/A
1:30 pm73 °FScattered clouds.9 mph53%30.18 "HgN/A
1:00 pm72 °FScattered clouds.7 mph57%30.18 "HgN/A
12:30 pm72 °FScattered clouds.13 mph57%30.21 "HgN/A
12:00 pm72 °FScattered clouds.14 mph57%30.21 "HgN/A
11:30 am72 °FScattered clouds.13 mph57%30.21 "HgN/A
11:00 am70 °FScattered clouds.10 mph60%30.24 "HgN/A
10:30 am68 °FPartly sunny.12 mph64%30.24 "HgN/A
10:00 am68 °FPartly sunny.10 mph64%30.27 "HgN/A
9:30 am66 °FPartly sunny.10 mph68%30.27 "HgN/A
9:00 am63 °FScattered clouds.9 mph73%30.27 "HgN/A
8:30 am64 °FScattered clouds.8 mph73%30.27 "HgN/A
8:00 am63 °FScattered clouds.9 mph77%30.24 "HgN/A
7:30 am61 °FPassing clouds.8 mph77%30.24 "HgN/A
7:00 am59 °FPassing clouds.7 mph82%30.24 "HgN/A
6:30 am59 °FPassing clouds.8 mph82%30.21 "HgN/A
6:00 am59 °FPassing clouds.8 mph88%30.21 "HgN/A
Weather by CustomWeather, © 2019

See weather overview